STARLINK-3675, 51963

Orbit data source: Space-Track

STARLINK-3675, 51963 is a payload satellite owned by SpaceX/Seattle (US) in LEO that was launched on Wed, 09 Mar 2022 UTC via an FALCON 9 launch vehicle from the Air Force Eastern Test Range (AFETR). Payload-class satellites include a variety of spacecraft equipped with specific instruments for various scientific and technological missions. These include communications satellites like Starlink; space stations such as the ISS; scientific satellites like the Hubble; Earth observation satellites from companies like Planet Labs, Umbra, and HawkEye 360; GPS; miniature CubeSats for education and research; and military/defense satellites.

Loading next visibility...
Identifier
51963, 2022-025H
Orbit
LEO
Country
Flag of USUS
Related business
Manufacturer
SpaceX/Seattle
Mission
Operational Commercial Communications
Bus & Motor
STARLINK, Unknown motor
Mass
297 kg wet, ~275 kg dry
Launch date (UTC)
2022-03-09 (4 years ago)
Launch vehicle
FALCON 9
Launch site
Air Force Eastern Test Range (AFETR)
Object type
Payload
Rocket body
Debris
Shape & HBR
Box + 1 Pan, 10.1 m
Radar Cross Section
13.562 m², Large (>1 m²)

Expand to show TLE details & history
Last TLE update: 1 day ago

TLE from 1 day ago
0 STARLINK-3675
1 51963U 22025H   25346.46380626 -.00000097  00000-0  12379-4 0  9993
2 51963  53.0575  53.1268 0001656 122.4148 237.7002 15.06389302207902
Epoch: 2025-12-12T11:07Z
TLE epoch observation values (Epoch: 2025-12-12T11:07:52.860Z)
Latitude
0.00001°
Longitude
164.7515°
Altitude
548.737 km
Speed
7.588 km/s
True Right ascension
03h 32m 30s
True Declination
0° 00' 00"
Sunlit
Object was in full shadow at epoch
Visualization orbit readout
Latitude
Unknown
Longitude
Unknown
Altitude
Unknown
Speed
Unknown
Apparent Right ascension
Unknown
Apparent Declination
Unknown
Sunlit
N/A
Visualization observer readout
Local Sidereal Time
09:19:34
Azimuth
Unknown
Elevation
Unknown
Doppler factor
Unknown
Orbital elements
Apogee altitude
548.661 km
Perigee altitude
546.368 km
Semi-major axis
6,925.652 km
Eccentricity
0.00017
Inclination
53.0575°
RAAN
53.1268°
Arg. of periapsis
122.4148°
True anomaly
237.68416°
Mean anomaly
237.7002°
Eccentric anomaly
237.69218°
Mean motion
3.76576 °/min
Orbital period
95.6 mins
BSTAR
0.000012379
Loading maneuver chart data...
Computing Atmospheric mass density...
Loading historical data...
Loading historical data...
Loading historical data...
Loading historical data...
Loading historical data...
Loading historical data...
Loading historical data...

Documentation

Showing up to 5 results
|